Wind_Speed
44 44 44 44 44 43 43 42 42 42 43 44 45 46 47 49 50 52 54 55 56 58 59 60 61 62 62 62 62 61 60 59 58 58 57 57 57 57 58 58 59 59 60 61 62 64 66 68 70 72 73 74 75 76 77 77 77 77 77 77 76 76 76 76 76 74 70 68 70 71 73 74 74 75 77 77 78 80 81 83 85 86 87 88 88
46 45 45 45 44 44 44 44 44 45 46 47 48 49 50 52 53 54 55 57 58 59 60 61 61 62 62 61 60 59 58 58 57 57 57 57 57 58 58 58 59 59 60 62 64 66 68 70 72 74 75 75 76 76 77 77 77 76 76 76 75 75 76 75 75 75 73 70 70 72 74 76 77 78 81 82 83 83 84 86 87 88 89 91 91
46 45 45 45 45 45 45 46 47 48 49 50 50 51 52 53 54 56 57 58 59 60 61 61 61 61 60 59 58 58 57 57 56 56 56 57 57 58 58 58 59 60 62 64 66 68 70 72 74 75 76 76 76 76 76 76 76 76 75 75 75 75 75 75 76 77 76 73 72 74 76 78 80 82 85 86 87 87 87 88 89 90 90 92 93
45 45 45 45 46 46 47 49 50 51 51 52 52 52 53 55 56 57 58 59 59 60 60 60 60 59 59 58 58 57 57 57 56 56 57 57 58 58 58 59 60 62 64 66 68 70 72 74 75 76 77 77 76 76 76 76 75 75 75 75 75 74 74 76 78 79 79 77 75 76 79 81 83 86 88 89 90 90 91 91 91 91 91 92 94
45 46 46 47 48 49 50 51 52 52 52 52 53 53 54 56 56 57 58 59 59 59 59 59 59 59 58 58 58 57 57 57 57 57 58 58 58 59 60 61 63 65 67 68 70 72 74 75 76 77 77 76 76 75 75 75 75 75 75 74 74 74 76 78 80 81 81 81 80 79 82 85 87 89 92 93 93 92 92 91 92 94 95 96 97
48 49 50 50 51 52 52 52 53 53 53 53 54 54 55 56 57 58 58 59 59 59 59 59 58 58 58 58 58 57 57 57 57 58 59 59 60 61 62 64 65 67 69 71 72 74 75 76 77 77 77 76 75 74 74 74 75 74 74 74 74 76 78 80 82 82 83 84 85 85 85 87 89 91 93 95 96 96 96 95 93 95 97 99 100
52 52 53 53 54 55 55 55 55 55 55 54 54 55 56 57 57 58 58 58 58 58 58 58 58 58 57 57 57 57 57 58 59 59 60 61 62 64 65 67 68 70 72 73 75 76 77 77 77 77 76 75 74 74 74 74 74 73 73 74 76 79 81 82 83 84 85 87 88 90 90 90 92 93 95 96 98 99 101 101 100 99 101 102 104
55 56 56 56 57 57 56 56 55 55 54 54 54 55 55 56 56 57 57 57 57 57 57 57 57 57 57 57 58 58 59 60 61 62 63 64 65 67 69 70 71 73 75 75 77 77 77 77 76 75 74 74 74 74 75 74 73 73 75 77 80 81 82 84 85 86 88 89 91 93 93 93 94 96 96 98 99 100 103 106 107 107 107 108 107
56 56 56 56 56 55 55 54 54 53 53 54 54 54 55 55 56 56 57 57 57 57 57 57 57 57 58 58 59 60 61 62 63 65 66 68 69 70 71 73 74 76 77 77 77 77 76 75 74 74 74 74 75 74 73 73 73 75 78 80 82 83 84 86 87 89 90 92 94 95 96 96 96 98 99 101 102 103 105 108 110 111 112 111 109
55 55 55 54 54 54 53 53 53 53 53 53 54 54 55 55 56 56 57 57 57 57 57 58 58 58 59 59 60 61 63 64 66 67 69 71 72 73 74 76 77 78 78 77 76 74 74 74 74 74 75 75 75 73 73 74 76 79 81 83 84 85 87 88 90 92 93 94 96 97 98 98 98 100 103 104 106 107 108 110 112 113 113 112 109
54 53 53 53 53 52 52 52 52 52 53 53 54 54 55 55 56 56 57 57 57 58 58 58 58 59 59 60 61 63 64 66 68 70 71 73 75 76 77 78 78 78 77 74 73 73 73 74 75 75 76 75 73 73 75 77 80 82 83 85 86 88 89 91 92 94 96 97 97 99 101 101 101 103 106 107 108 109 110 112 112 112 112 112 110
52 52 51 51 51 51 51 51 52 52 52 53 53 54 55 55 56 56 57 57 58 58 58 59 59 60 60 62 63 65 67 68 70 72 74 76 77 78 79 79 78 76 73 71 72 73 74 75 76 76 75 73 74 76 78 80 82 83 84 86 88 90 92 93 95 96 98 98 99 100 102 104 104 105 108 110 111 112 111 111 110 111 111 111 110
50 50 49 49 49 50 51 51 52 52 53 53 54 55 55 56 56 57 57 58 58 59 59 60 60 62 63 65 66 68 70 71 73 75 77 78 79 79 79 77 74 71 70 71 72 73 75 76 75 74 73 74 77 79 81 82 83 84 85 87 89 91 93 95 97 98 99 100 101 101 103 106 107 107 109 111 113 113 112 111 110 110 110 109 107
49 49 49 49 49 50 51 52 52 53 54 55 56 56 56 57 57 58 58 59 60 61 62 63 64 65 66 68 70 71 73 74 76 78 79 79 79 77 75 71 70 70 71 72 73 75 76 74 73 73 75 78 80 81 82 83 83 85 87 88 90 92 94 96 97 99 100 101 102 103 104 107 108 109 110 112 113 113 113 112 111 110 109 106 104
50 50 50 50 50 51 52 53 54 55 56 57 57 58 58 59 59 60 61 62 63 64 65 65 66 68 69 71 72 74 75 77 78 79 78 77 75 72 69 69 69 70 72 73 75 75 73 72 72 75 79 81 82 82 82 83 84 86 88 89 91 93 94 96 97 98 100 101 103 105 106 107 108 110 111 112 112 112 112 111 109 107 107 105 102
51 51 51 51 52 53 54 55 56 57 57 58 59 60 60 61 62 63 63 64 65 66 67 68 69 71 72 74 75 77 78 78 78 76 74 72 70 68 68 69 70 72 73 75 74 73 72 73 76 79 81 82 82 82 83 85 86 87 89 90 91 93 94 95 96 98 100 102 103 105 106 107 109 109 110 110 110 110 109 107 105 104 104 103 100
52 52 53 53 54 54 55 56 58 59 60 60 61 62 62 63 64 64 65 66 67 68 70 71 72 74 75 77 77 77 77 75 74 71 69 68 68 69 69 70 71 73 74 73 72 72 74 77 79 81 81 81 82 83 85 87 88 89 89 90 91 92 93 94 96 97 100 101 103 105 106 107 108 108 108 108 108 108 106 105 104 103 103 101 97
52 53 54 55 56 57 58 59 60 61 61 62 63 63 64 65 66 67 68 69 70 72 73 74 75 76 76 76 75 73 72 71 69 68 68 68 69 69 70 72 72 72 71 71 72 74 77 80 81 81 81 81 84 86 87 88 89 90 90 90 91 91 92 94 95 97 98 100 102 104 105 106 106 106 105 105 105 104 103 102 102 101 100 97 93
53 55 56 57 58 59 60 61 62 62 63 64 65 65 66 68 69 70 71 72 73 74 75 74 74 73 72 71 70 70 69 68 68 68 69 69 70 71 72 71 70 70 69 71 73 76 79 80 80 80 82 84 86 87 88 89 89 90 90 91 91 91 93 94 96 98 99 100 101 102 103 104 104 103 103 102 101 100 99 99 98 97 95 92 88
53 55 57 58 59 60 61 62 63 64 65 66 67 69 70 71 72 72 72 73 72 72 71 71 70 70 69 69 68 68 68 68 69 69 70 71 72 72 70 69 68 68 69 72 75 78 79 79 80 82 84 86 87 87 88 89 89 89 90 91 91 92 94 96 97 99 100 100 101 102 102 102 101 101 100 99 96 95 95 94 92 90 88 87 84
52 54 56 58 60 61 63 64 65 66 67 68 69 70 70 70 70 69 69 69 68 68 68 68 68 68 68 68 68 68 68 69 70 71 72 72 71 69 69 68 68 68 71 75 77 77 77 79 82 84 85 86 87 87 88 88 88 88 89 91 92 94 96 97 98 99 100 101 101 102 101 100 99 98 97 94 93 92 91 89 86 83 82 82 81
50 52 53 55 56 58 59 60 61 62 63 64 64 64 64 64 65 65 65 65 66 66 67 67 67 67 67 68 68 68 69 70 71 72 72 71 70 69 69 68 67 70 74 76 76 77 79 81 83 84 85 86 86 86 86 86 87 88 89 91 93 95 97 98 99 99 100 101 101 100 100 99 98 96 94 92 90 89 87 84 81 78 76 76 77
48 48 50 51 52 53 54 55 56 57 58 58 59 60 60 61 62 63 64 65 66 66 67 67 67 68 68 68 69 69 70 72 72 72 71 71 71 70 68 67 69 72 74 75 76 79 80 81 82 84 84 85 85 85 85 85 86 88 90 92 94 96 97 98 99 99 100 100 99 99 98 97 96 94 92 90 88 86 84 80 76 73 71 71 71
47 47 48 50 51 52 53 54 55 56 57 58 59 59 60 61 62 63 64 65 66 67 67 68 68 68 69 69 70 70 71 71 72 73 72 71 69 68 68 70 73 74 75 76 79 80 81 82 83 83 83 83 83 83 84 85 87 89 91 93 94 96 96 97 97 98 98 98 97 96 96 95 94 92 90 88 87 84 80 75 71 70 69 68 67
48 49 50 50 51 52 54 54 55 57 58 58 59 60 61 62 63 64 65 66 66 67 67 68 68 68 69 69 69 70 71 73 74 73 71 70 69 71 72 74 75 76 78 79 80 81 81 82 82 82 82 82 81 82 83 85 87 89 91 93 94 95 95 96 96 96 96 95 95 94 93 92 91 90 88 86 84 80 76 71 67 67 66 65 64
50 51 51 52 53 53 54 55 56 57 58 58 59 60 61 62 63 64 65 65 66 66 66 66 66 66 67 68 70 72 73 73 72 70 70 72 73 73 73 74 77 79 80 80 80 81 81 81 81 81 81 80 80 81 83 85 87 89 91 92 93 93 94 94 93 93 93 93 92 92 91 90 89 87 86 83 80 76 72 68 66 65 64 63 61
52 52 53 53 54 54 55 55 56 56 57 57 58 59 60 61 62 62 63 63 63 63 63 63 64 66 68 70 71 71 70 70 71 72 73 73 73 73 74 77 79 79 79 79 80 80 80 80 80 79 78 78 80 82 84 86 87 89 90 91 91 91 92 91 91 91 90 90 90 90 89 88 86 85 83 80 76 72 68 66 65 64 63 62 60
54 54 54 55 55 55 55 56 56 57 57 57 57 58 58 59 60 61 61 61 61 61 61 62 65 67 69 69 69 69 71 72 72 73 73 73 74 76 77 78 78 78 79 79 79 79 78 78 77 76 77 78 80 82 83 85 86 87 88 88 89 89 89 88 88 88 88 88 88 88 87 85 84 82 80 77 73 68 65 64 63 63 62 61 59
56 56 56 56 56 56 56 57 57 57 58 58 58 59 59 60 61 61 61 60 60 60 61 63 66 67 68 69 70 72 72 71 71 72 73 75 76 77 77 77 77 78 78 78 77 77 76 75 74 75 76 78 80 81 82 83 84 85 86 87 87 87 86 85 84 85 86 86 87 86 85 83 81 80 78 74 69 65 63 62 61 60 59 58 57
58 58 58 58 58 58 58 58 59 59 60 60 61 61 61 62 62 61 61 60 60 61 63 65 66 68 69 70 71 71 71 71 72 74 76 76 76 76 76 77 77 77 77 77 76 75 74 73 74 75 77 79 80 81 81 82 83 84 85 86 85 84 83 82 82 83 84 84 84 84 83 81 80 78 75 71 66 62 60 60 59 58 57 56 55
60 60 60 60 60 60 60 60 60 61 61 61 62 62 62 63 63 62 62 61 62 63 64 65 67 68 69 71 71 72 73 74 75 75 75 76 76 76 77 77 77 77 76 75 74 73 73 73 75 76 78 79 80 80 81 82 83 84 84 84 83 82 80 80 80 81 81 82 82 82 81 80 78 77 73 69 64 59 57 57 56 54 54 53 53
61 61 61 61 61 61 61 61 61 61 62 62 62 63 63 64 64 64 63 63 64 64 65 65 67 68 70 71 72 73 74 74 75 75 76 76 76 77 77 77 77 76 75 73 72 72 73 74 75 77 78 79 80 81 82 83 84 83 82 81 80 79 78 78 78 79 79 79 79 79 79 78 76 75 71 66 61 57 55 54 53 52 51 50 49
61 61 62 62 62 62 62 62 62 62 62 62 63 64 64 64 65 65 65 65 66 66 66 66 67 68 70 71 71 72 73 74 76 77 77 77 77 77 77 76 75 74 72 72 72 72 73 75 76 77 79 79 80 81 82 82 82 81 80 79 78 77 77 76 76 76 76 77 78 77 77 76 75 72 68 63 59 55 53 52 51 49 48 47 46
62 62 62 62 63 63 63 63 63 63 63 63 64 64 64 65 66 66 66 66 66 66 66 66 67 68 70 71 72 73 74 76 77 77 77 77 77 77 76 75 74 73 72 71 72 73 74 75 77 78 79 79 80 81 81 81 81 80 79 78 77 76 75 74 73 73 74 75 76 76 75 74 73 70 66 60 56 53 52 50 48 47 46 45 43
62 62 63 63 63 64 63 63 63 63 64 64 64 65 65 66 66 67 67 67 66 66 66 67 69 70 71 72 73 74 75 77 78 78 77 77 77 77 76 74 73 72 72 72 73 74 75 76 77 78 78 79 79 79 80 80 79 78 77 76 75 74 73 71 70 71 72 74 74 74 73 73 72 69 64 58 54 51 49 48 47 45 43 42 41
63 63 64 64 64 64 64 64 64 64 64 65 65 66 66 66 66 66 66 67 67 67 68 69 70 71 73 74 75 76 77 78 78 77 77 77 77 76 75 74 73 72 73 74 74 75 75 76 78 78 78 78 79 79 79 78 78 77 76 75 74 72 70 68 68 69 71 72 73 72 72 72 71 67 62 57 53 50 48 46 45 43 41 39 38
65 65 65 65 66 66 66 65 65 65 65 66 66 66 66 66 67 67 67 68 69 69 71 72 73 73 75 76 76 77 77 77 77 76 77 76 76 75 74 74 73 73 74 75 75 74 75 77 78 78 78 78 78 77 77 76 76 75 75 74 72 70 68 66 66 68 70 72 72 71 71 71 70 65 60 55 51 48 46 44 43 41 39 37 36
65 65 66 66 67 67 67 66 67 67 67 68 68 68 68 68 69 69 70 71 71 72 73 74 75 76 76 77 77 77 77 76 76 77 76 75 74 74 74 73 72 73 73 73 72 72 74 77 77 77 77 76 75 74 74 74 74 74 73 72 70 67 65 65 66 68 70 71 71 70 70 70 69 64 59 53 49 46 44 42 41 39 37 35 34
66 66 67 67 67 68 68 68 69 69 70 70 70 70 71 71 71 72 73 73 74 75 76 77 77 77 78 78 78 78 78 77 76 76 75 74 73 72 71 71 71 72 71 70 70 72 76 77 76 75 75 74 73 72 72 72 72 72 72 70 68 66 64 64 65 68 70 70 70 69 69 70 67 62 57 52 48 45 43 41 39 37 35 33 32
69 69 69 69 69 70 70 70 71 72 72 72 73 73 73 74 74 74 75 76 77 78 78 79 79 79 78 78 78 77 76 76 75 75 74 72 71 70 70 71 71 70 69 70 72 74 75 75 75 75 73 72 72 72 72 71 70 71 71 70 67 65 64 64 65 67 69 70 69 68 69 69 65 61 56 51 47 45 42 40 38 37 34 32 30
72 72 72 72 72 72 73 73 74 74 74 74 75 75 76 76 76 77 78 79 79 80 80 80 79 79 78 77 76 75 75 74 74 73 72 72 72 72 71 70 69 69 70 72 74 74 74 75 75 74 72 71 72 71 70 69 69 69 70 68 65 64 63 64 65 67 69 69 68 68 69 68 64 59 54 50 46 44 42 40 38 36 34 31 29
75 75 75 75 76 76 76 76 76 77 77 77 78 78 78 78 79 80 80 80 81 81 81 80 79 78 77 76 74 74 73 73 72 72 72 73 73 72 70 68 68 70 72 73 73 74 74 74 73 72 71 71 70 69 69 67 67 68 69 67 64 63 63 63 65 67 68 68 68 68 69 67 63 58 54 49 45 43 42 39 37 36 34 31 28
78 78 78 79 79 79 79 79 79 80 80 80 80 80 81 81 82 82 82 82 82 82 81 80 79 78 77 75 74 73 72 72 72 72 73 73 72 70 69 69 71 72 72 72 73 73 73 71 70 70 70 69 68 67 67 66 65 67 67 65 62 62 62 63 65 67 67 67 67 69 69 66 61 56 52 48 45 43 41 39 37 35 34 32 29
81 81 81 81 81 81 81 81 81 81 82 82 82 83 83 83 84 84 84 83 83 82 81 80 80 78 76 75 73 73 73 73 73 73 73 73 72 71 71 71 71 70 70 72 73 72 70 69 69 69 69 68 67 67 66 65 65 66 65 62 61 61 62 62 65 66 66 66 67 69 68 64 59 55 51 48 45 43 41 39 37 35 34 32 29
84 84 84 84 84 84 84 83 83 83 83 84 84 84 84 85 84 84 84 83 82 82 81 80 78 77 75 74 73 73 73 74 74 73 73 72 71 71 71 69 68 69 71 72 72 70 68 67 68 69 68 67 66 66 64 64 64 65 63 61 60 61 61 63 65 66 65 65 66 68 67 62 57 53 50 47 44 43 41 39 37 35 34 32 30
87 87 87 86 86 86 85 85 85 85 85 85 85 85 85 84 83 83 82 82 81 80 79 78 77 76 75 74 74 74 74 74 74 74 72 71 70 69 67 66 67 70 72 72 71 68 66 66 67 68 67 66 65 64 63 63 64 64 61 60 60 61 61 63 65 65 65 65 66 67 65 60 56 52 48 46 44 42 41 39 37 35 33 33 31
89 88 88 87 87 86 86 85 85 85 85 84 84 84 83 83 82 81 80 80 79 79 78 78 78 77 76 76 75 74 74 74 74 74 72 71 69 66 64 65 68 71 72 71 69 66 66 67 67 67 66 65 64 63 62 63 64 62 60 60 61 61 62 64 65 65 64 66 67 67 63 58 54 50 47 45 43 42 41 39 37 35 33 33 31
89 89 88 87 87 86 85 84 84 84 83 83 83 83 82 82 82 81 81 80 80 80 80 80 80 79 78 77 76 75 75 75 74 73 72 70 66 63 64 66 69 71 70 69 67 65 66 67 66 66 65 65 63 61 61 62 62 61 60 60 61 62 63 64 65 64 65 66 67 66 61 56 52 49 46 44 43 42 40 39 37 35 33 32 32
89 88 87 87 86 85 85 84 84 84 83 83 83 83 83 83 83 82 82 82 82 82 82 82 81 80 79 78 77 77 76 75 74 73 71 69 65 64 65 68 70 70 69 67 65 65 65 65 65 65 65 63 61 60 60 61 61 60 60 61 62 62 64 65 64 64 65 67 67 64 59 54 51 48 46 44 42 41 39 38 36 35 34 33 32
88 88 87 87 87 86 86 86 85 85 85 85 85 84 85 85 84 84 84 84 84 84 84 83 82 81 80 79 79 78 77 76 74 73 71 68 65 64 66 68 69 68 67 65 65 64 64 65 65 65 63 60 58 58 59 59 59 59 60 61 62 63 64 64 63 64 66 67 66 62 56 52 49 47 45 44 42 40 38 37 36 35 34 33 32
89 89 89 89 88 88 88 88 87 87 87 87 87 87 87 87 87 86 86 86 86 86 85 84 83 82 81 80 79 79 77 75 73 71 68 66 64 64 66 68 68 66 65 64 64 64 64 65 65 63 59 57 57 57 57 58 59 59 60 61 62 63 64 63 63 64 66 67 64 59 54 50 48 46 45 43 41 39 38 37 35 34 34 33 33
Wind_Direction
264 264 265 265 265 266 267 267 268 269 271 273 276 278 280 280 281 281 282 282 282 282 282 282 283 283 284 285 285 286 287 288 288 288 288 288 288 289 289 290 292 293 294 295 296 297 298 299 300 300 302 303 305 306 307 307 307 307 307 307 307 307 306 306 306 307 307 306 305 304 303 303 303 302 302 301 301 302 302 302 302 301 301 300 300
264 264 265 265 265 266 266 266 268 270 273 275 278 279 280 280 281 282 282 282 281 280 281 281 281 282 283 284 284 285 286 287 287 286 286 287 288 289 290 291 292 293 294 295 296 297 298 299 300 301 302 304 305 306 306 306 306 306 306 306 306 306 305 305 305 306 307 307 306 305 304 304 304 304 303 303 303 303 303 302 302 302 301 301 301
264 264 264 264 264 264 265 267 270 273 276 278 279 279 279 279 281 281 281 280 279 279 279 280 280 281 282 283 284 285 285 285 285 286 286 287 289 290 291 292 293 293 294 295 296 297 298 299 300 302 303 304 305 305 305 305 305 305 305 306 305 305 305 306 306 307 307 307 307 306 306 305 305 305 304 304 304 303 303 302 302 302 302 302 302
264 264 263 263 264 265 268 270 273 275 277 278 279 278 278 279 280 280 279 278 278 278 278 279 280 281 281 282 283 284 284 284 285 286 287 288 289 290 291 292 293 293 294 295 296 297 298 300 301 302 303 304 304 304 304 304 305 305 305 305 305 305 306 307 308 308 308 308 308 307 306 306 306 305 304 304 304 304 304 304 304 304 303 303 303
263 263 264 265 267 269 271 273 275 276 277 278 278 278 278 278 279 278 277 277 277 278 278 279 280 281 282 282 283 284 284 284 285 287 288 289 289 290 291 292 293 294 295 296 297 298 299 300 301 302 303 303 303 304 304 305 305 306 306 305 305 306 307 308 308 308 308 308 308 307 307 306 306 306 306 305 305 305 304 304 305 305 305 305 305
263 264 265 267 269 271 273 274 276 277 278 278 277 277 278 277 277 277 277 277 277 278 279 280 281 281 282 283 284 284 284 285 286 287 288 289 289 290 291 292 293 294 296 297 298 299 300 301 301 302 302 302 303 304 304 305 306 306 305 305 306 306 307 307 308 308 308 308 308 308 307 307 307 306 306 307 306 306 306 305 305 306 306 307 307
264 265 267 268 270 272 274 275 276 277 278 278 277 276 276 276 276 276 276 277 278 278 279 280 281 282 283 284 284 284 285 286 287 288 288 289 290 291 292 293 294 296 297 298 299 300 300 301 301 301 302 303 304 304 305 306 306 305 305 305 306 306 307 307 307 307 308 308 308 308 308 308 308 308 308 307 307 308 308 308 308 308 308 308 309
265 267 268 270 271 273 274 275 276 276 276 276 275 275 275 275 276 276 277 278 278 279 280 281 282 283 284 284 285 285 286 286 288 289 290 290 291 292 293 295 296 297 298 299 300 300 300 301 301 302 303 304 305 305 306 305 305 305 305 306 306 307 307 307 307 308 308 308 309 309 309 309 309 309 308 308 308 309 309 310 310 310 310 310 310
267 268 270 271 272 274 274 275 275 275 275 275 275 275 276 276 277 277 278 278 279 279 280 281 282 283 284 285 285 286 286 287 288 290 291 292 292 293 295 296 297 298 299 299 300 300 301 301 302 303 304 305 305 305 305 305 305 305 306 307 307 307 307 307 308 308 309 309 309 310 310 310 310 309 309 309 310 311 311 311 311 312 311 311 312
269 270 271 273 274 274 275 275 275 275 275 275 276 276 276 276 277 277 278 278 279 280 281 282 283 284 285 285 286 287 287 288 289 290 291 292 293 294 296 296 297 298 299 300 301 301 302 302 303 304 305 305 305 305 305 306 306 307 307 307 307 307 308 308 309 309 309 310 310 310 310 310 310 311 311 312 312 312 312 313 313 313 312 312 313
270 271 272 273 273 274 274 274 274 275 275 275 275 276 276 276 277 278 278 279 280 281 282 283 283 284 285 286 287 287 288 289 290 290 291 292 294 295 295 296 297 299 300 300 301 302 302 303 304 304 305 305 305 306 306 307 308 308 308 308 308 309 309 309 310 310 310 310 311 311 311 311 312 313 313 313 313 314 314 314 314 314 314 314 314
270 271 272 272 273 273 273 273 273 273 274 274 275 275 276 277 277 278 279 279 280 281 282 283 284 285 286 287 287 288 289 289 290 291 292 293 293 294 295 296 298 299 300 300 301 301 302 303 304 304 304 305 306 307 307 307 307 308 308 308 309 310 310 310 311 311 311 311 311 312 312 313 314 314 314 314 315 315 315 315 315 315 315 316 317
271 272 272 272 272 272 272 273 273 273 274 274 275 276 276 277 278 278 279 280 281 282 283 284 285 286 287 287 288 289 289 290 290 291 292 292 293 294 296 297 299 299 300 300 301 301 302 303 303 304 305 306 307 307 307 307 307 308 309 309 310 310 310 311 311 311 311 312 312 313 314 314 315 316 316 316 316 316 316 316 317 317 317 318 318
272 272 272 272 272 272 272 273 273 274 274 275 275 276 277 277 277 278 279 280 281 282 283 284 285 286 287 288 288 289 289 290 290 291 291 292 294 296 297 298 299 300 300 300 301 301 302 302 303 305 306 306 306 306 306 306 307 308 309 309 310 310 310 311 311 311 312 313 313 314 315 315 316 317 317 317 317 318 318 319 319 319 319 319 319
273 272 272 271 271 271 271 272 272 273 274 274 275 276 276 277 277 278 279 280 282 283 284 285 286 287 287 288 289 289 289 289 290 291 293 295 296 297 298 299 299 299 300 300 301 301 302 303 305 306 306 305 305 305 306 307 308 308 309 309 309 310 310 310 311 312 313 313 314 315 316 317 317 318 318 318 319 319 320 320 320 320 320 320 320
273 272 271 271 270 270 271 271 272 272 273 274 275 275 276 277 278 279 280 281 283 284 285 286 287 288 289 289 289 289 289 290 291 293 295 296 297 297 298 298 299 299 300 300 300 301 303 304 305 304 304 304 304 306 306 307 308 308 308 309 309 309 310 311 312 312 313 314 315 316 317 318 318 319 320 320 320 320 321 321 320 320 320 320 319
271 271 270 270 270 270 271 271 272 273 273 274 275 276 277 278 279 280 281 283 284 285 286 287 288 289 289 289 289 290 291 292 294 295 296 296 296 297 298 298 299 299 299 300 301 303 303 303 303 303 303 304 305 306 306 307 307 307 308 308 309 309 310 311 312 313 314 315 316 317 318 319 319 320 321 321 321 321 321 321 321 320 320 320 319
270 270 270 270 271 271 272 273 274 274 275 276 277 278 279 279 280 281 283 284 285 286 288 289 289 289 289 290 291 292 293 294 295 295 295 296 296 297 297 298 298 299 300 301 302 302 301 301 302 303 304 305 305 305 305 306 306 307 307 308 308 309 310 310 311 312 314 315 316 317 318 319 320 321 322 322 322 322 322 322 321 321 320 320 320
268 269 269 270 271 272 273 273 274 275 276 277 277 278 279 280 281 283 284 285 286 287 288 289 289 290 290 291 292 293 293 294 294 295 295 295 296 297 297 298 298 299 301 301 300 300 300 301 303 304 304 304 304 304 305 306 307 307 308 308 309 309 310 311 312 312 314 315 316 317 318 319 320 322 322 323 323 323 323 322 322 321 321 321 321
268 268 269 269 270 271 271 272 273 274 275 276 277 279 280 281 282 283 284 285 286 287 288 288 289 289 290 291 291 292 293 293 294 294 294 295 295 296 297 298 299 300 300 299 299 300 301 302 303 303 303 303 304 305 306 307 307 308 308 308 309 310 311 312 313 313 314 315 317 318 319 320 321 322 323 324 324 323 323 322 321 321 321 321 322
270 270 270 270 271 271 272 273 274 275 276 277 278 279 280 281 282 283 284 285 286 286 287 287 288 288 289 290 291 291 292 292 293 293 294 295 296 297 297 298 298 299 298 299 299 301 302 302 302 302 303 303 305 306 306 307 307 308 308 309 310 311 312 313 314 314 315 317 318 319 320 321 323 323 324 324 324 324 323 322 321 321 321 321 322
272 272 272 272 273 273 274 275 275 276 277 278 279 280 281 282 282 283 284 284 285 285 286 286 287 288 289 290 290 291 291 292 292 293 294 295 296 297 297 297 297 297 298 299 300 301 301 301 301 301 303 304 305 306 307 307 308 308 309 310 312 312 313 314 315 316 317 318 319 321 322 323 324 324 325 325 325 324 323 322 321 321 321 322 323
274 274 275 275 275 275 276 276 277 278 279 279 280 281 281 282 282 283 283 284 284 285 285 286 287 288 289 290 290 291 291 292 292 293 294 295 295 295 295 295 295 296 298 299 299 299 299 299 300 302 303 304 305 306 306 307 308 309 310 311 312 313 314 315 316 317 319 320 321 322 323 324 325 326 326 326 326 325 324 323 322 322 322 322 323
279 279 279 279 279 278 278 279 279 279 280 280 280 281 281 281 282 282 283 283 284 285 285 287 287 288 289 289 290 290 291 291 292 293 294 293 293 293 294 295 296 297 298 298 297 297 298 299 301 302 304 304 305 306 307 308 309 310 311 312 312 314 315 317 318 319 320 321 323 324 324 325 326 327 327 327 326 325 324 324 323 322 322 323 324
282 282 282 282 282 281 281 281 280 280 280 280 280 281 281 281 281 282 282 283 284 284 286 287 287 288 289 289 289 290 290 291 292 291 291 291 292 293 294 294 295 296 295 295 296 297 299 300 302 303 304 305 305 306 307 308 309 310 311 312 313 315 317 318 319 320 321 322 323 325 325 326 327 328 328 328 327 325 324 323 322 322 322 324 324
282 282 282 282 282 282 282 282 282 282 281 281 281 281 281 281 281 282 282 283 283 285 286 287 287 288 288 288 289 289 289 289 288 288 289 290 291 291 291 292 292 293 294 295 296 298 300 302 303 303 304 304 305 306 307 308 309 310 312 313 315 317 318 319 320 321 322 323 324 325 326 327 328 329 329 328 327 325 323 323 322 322 323 324 324
281 282 282 283 283 284 284 284 284 283 283 283 282 282 282 282 281 282 282 283 284 285 286 287 287 287 287 287 287 286 286 286 286 288 289 289 289 289 289 290 291 292 294 296 298 299 301 302 302 303 303 304 305 306 307 308 310 312 314 315 316 317 319 320 321 322 323 324 325 326 327 328 329 329 329 328 326 324 323 322 322 323 324 324 325
282 282 283 283 284 284 285 285 285 284 284 283 283 282 282 282 282 282 283 284 285 286 286 286 286 285 284 284 283 283 284 285 286 286 286 287 287 288 289 290 291 293 295 297 299 300 301 301 302 302 303 304 306 307 309 310 312 314 315 316 317 319 320 321 322 323 324 325 326 327 328 329 330 330 329 328 326 324 323 322 322 323 324 325 325
282 282 283 283 284 284 284 284 284 284 283 283 283 283 283 283 283 284 284 285 286 286 284 283 282 281 281 281 282 283 284 284 284 284 285 287 288 289 290 291 293 295 297 298 299 300 300 301 302 303 304 305 307 308 310 312 314 315 316 317 318 320 321 322 323 323 324 325 326 327 328 329 330 330 329 327 326 324 322 322 322 323 324 325 325
280 281 281 282 282 282 282 282 282 282 282 282 283 283 283 284 284 284 285 285 284 282 280 279 279 280 281 281 282 282 282 282 283 285 286 287 288 290 292 294 295 296 297 298 299 299 300 301 302 303 304 306 308 309 311 313 315 316 317 318 319 321 322 322 323 323 324 325 326 327 328 329 330 330 329 327 325 324 322 322 323 324 325 325 325
279 279 279 279 279 280 280 280 280 281 281 282 282 282 283 283 283 283 283 282 281 279 279 279 279 279 279 280 280 281 282 283 284 285 286 288 290 292 293 294 295 296 297 298 298 299 300 301 302 304 305 307 309 311 312 314 315 316 317 319 320 321 322 322 323 323 324 325 327 328 329 330 330 330 328 326 325 323 322 322 323 324 325 325 327
277 277 278 278 278 278 278 279 279 279 279 279 280 280 280 281 281 281 281 280 280 279 279 279 278 278 278 279 280 281 283 284 285 286 288 290 291 292 293 294 295 296 296 297 298 299 300 301 303 304 306 308 310 311 313 314 316 317 319 320 321 322 322 322 323 324 325 326 327 328 329 330 330 330 328 325 324 323 322 322 323 324 324 325 328
277 277 277 278 278 278 278 278 277 277 277 277 277 278 278 279 279 279 279 279 280 280 279 279 278 279 279 280 281 282 284 285 286 287 289 290 291 292 293 294 295 296 296 297 298 299 300 302 304 305 307 308 310 311 313 316 318 319 320 320 321 322 322 323 323 324 325 327 328 329 329 330 330 329 327 325 324 323 322 323 323 324 324 325 328
277 278 278 278 278 278 278 278 277 277 277 277 277 278 278 278 278 278 279 279 280 280 279 279 279 280 281 281 282 283 284 285 286 288 289 290 291 292 293 294 295 295 296 297 298 300 301 303 305 307 308 309 311 313 316 318 319 319 320 321 322 322 322 323 323 324 326 327 328 329 329 329 330 329 326 324 323 322 322 323 323 323 324 324 327
278 278 278 278 278 278 278 277 277 277 277 277 277 277 277 277 278 278 279 279 279 280 279 279 280 281 281 282 283 284 285 285 287 288 290 290 291 292 293 294 294 295 296 298 299 301 302 304 307 309 310 311 313 315 317 318 319 319 320 321 322 322 322 322 323 324 326 327 328 328 328 329 329 328 326 324 323 322 322 322 322 322 323 324 327
279 278 278 278 277 277 277 277 277 277 277 277 277 277 277 277 278 278 278 279 279 279 279 280 280 281 282 282 283 284 285 286 288 289 290 290 291 292 293 293 294 295 297 299 301 302 303 306 308 310 310 312 313 315 317 318 318 319 321 322 322 322 322 322 323 324 326 327 328 328 328 329 329 327 325 323 322 322 321 321 321 321 322 324 327
278 278 277 277 276 276 276 277 277 277 277 277 278 278 278 278 278 279 279 279 279 280 280 281 281 282 282 283 284 285 286 287 288 289 289 290 291 291 292 293 295 297 298 301 302 303 304 307 309 309 310 311 313 315 317 317 318 319 321 322 322 321 321 322 323 324 326 327 327 327 327 328 328 326 324 322 321 321 320 320 320 320 321 323 326
276 276 275 275 275 276 277 277 278 278 279 279 279 279 279 280 280 280 280 280 281 281 282 282 283 283 283 284 285 286 287 287 288 288 289 290 290 291 293 295 296 298 300 302 302 303 304 306 308 308 309 310 312 315 317 318 318 320 322 322 321 321 321 322 323 324 325 326 327 326 327 328 327 325 322 321 321 320 319 318 318 319 320 322 324
275 275 275 276 277 277 278 279 279 280 280 280 281 281 281 281 281 282 282 282 282 283 283 283 284 284 284 285 286 286 287 288 288 288 289 290 291 293 295 296 297 299 300 301 301 302 304 306 306 307 308 310 312 315 317 317 318 320 322 322 321 320 320 322 323 324 325 325 325 326 327 328 326 323 321 320 320 319 318 317 316 316 317 319 321
276 276 277 278 279 280 280 280 281 281 281 281 282 282 282 282 282 282 282 282 283 283 283 283 283 284 284 285 286 286 287 287 287 288 289 291 292 293 295 296 298 299 299 299 300 302 304 305 305 306 307 310 312 315 316 316 317 319 321 321 320 319 320 321 322 323 324 324 324 325 327 327 325 322 320 319 318 318 317 315 314 313 314 315 318
277 278 279 280 281 281 281 281 281 281 281 281 281 281 281 281 281 281 281 281 281 281 282 282 283 283 284 284 285 285 285 286 287 288 289 290 291 293 295 296 297 296 296 297 300 302 303 303 304 305 307 309 312 313 315 316 316 319 321 320 318 317 319 320 321 322 323 323 324 325 326 326 324 321 318 317 316 316 316 314 312 311 311 312 314
279 279 280 281 281 281 282 282 281 281 280 280 280 280 280 279 279 279 279 280 280 281 281 282 282 283 283 284 284 284 284 285 286 287 288 289 291 292 293 293 292 292 294 297 299 300 300 301 302 304 306 309 311 312 314 315 316 318 319 318 316 316 318 319 320 321 322 322 323 325 325 325 322 319 317 316 315 314 314 313 310 307 307 308 311
279 280 280 280 281 281 281 281 280 279 279 279 278 278 278 278 278 278 278 279 279 280 281 281 282 282 283 283 283 283 284 284 285 286 287 288 290 290 289 289 289 291 294 296 298 298 299 300 301 303 306 308 310 311 312 313 315 317 318 316 314 315 317 318 319 320 321 322 323 324 325 323 320 318 316 314 313 313 312 311 308 305 303 304 306
279 279 279 280 280 280 280 279 279 278 278 277 277 277 277 278 278 278 278 279 279 280 280 280 281 282 282 283 283 283 283 284 284 285 286 287 287 287 287 287 289 291 294 295 296 297 297 298 301 304 306 308 308 310 311 312 314 315 315 314 313 315 316 317 318 319 320 321 322 324 323 321 318 316 314 312 311 311 310 308 306 302 300 300 301
277 278 278 278 278 278 278 277 277 276 276 276 276 277 277 277 278 278 279 279 279 280 280 281 281 282 282 283 283 283 283 283 284 284 285 285 285 286 286 287 289 291 292 293 294 294 295 298 301 304 306 307 307 308 309 310 313 314 313 312 312 314 315 316 317 319 320 320 322 323 322 319 316 314 312 310 309 309 307 305 304 300 297 295 296
276 276 276 277 277 277 276 276 276 275 275 275 275 276 276 277 277 278 278 279 279 280 280 281 281 282 282 282 283 282 282 282 283 284 284 284 284 285 286 287 288 289 290 291 292 292 294 297 301 304 305 305 306 306 307 309 312 312 312 311 312 314 314 315 317 318 319 320 322 322 321 317 315 313 311 309 308 307 305 302 300 298 294 291 291
275 275 275 275 275 275 275 275 275 274 274 275 275 275 275 276 276 276 277 277 278 279 279 280 281 281 282 282 282 282 281 281 282 282 283 283 284 284 284 285 287 287 289 290 289 290 292 297 300 303 304 303 303 304 306 309 311 311 310 311 312 313 314 315 316 318 319 320 322 322 319 316 313 312 311 309 308 306 304 300 297 294 291 288 287
274 274 274 274 274 274 274 274 274 274 274 274 274 274 275 275 275 276 276 277 277 278 279 279 280 281 281 281 281 280 280 280 280 280 281 282 282 282 282 284 285 287 287 287 287 288 293 297 300 302 301 301 301 303 305 308 310 310 310 310 311 312 313 314 316 318 319 321 322 321 318 315 312 311 310 309 308 306 303 299 295 291 288 285 283
273 273 273 273 274 274 274 274 274 274 274 274 274 274 274 275 275 275 276 276 277 277 278 278 279 279 280 279 279 279 278 278 278 279 279 279 279 279 280 282 284 285 285 284 285 289 294 297 299 300 299 298 299 301 305 307 309 309 309 310 311 311 312 314 316 318 320 321 321 320 317 313 312 311 310 309 308 306 303 299 294 288 285 282 279
273 273 273 273 273 273 273 273 273 273 273 273 273 274 274 274 275 275 275 276 276 277 277 277 278 278 278 278 278 278 278 278 278 277 277 277 277 276 277 280 282 282 281 282 286 291 295 297 298 297 295 295 297 301 304 307 308 308 308 309 309 310 312 314 317 318 320 321 321 318 315 312 311 311 310 309 308 306 304 300 294 288 282 279 276
272 272 273 273 273 273 273 273 273 273 273 273 273 273 273 274 274 274 275 275 275 276 276 276 277 277 277 277 277 277 277 277 277 277 277 277 276 276 277 279 280 279 280 284 289 292 294 295 294 292 292 294 298 301 303 305 307 307 307 307 308 310 312 314 317 319 320 320 319 317 313 311 311 311 310 309 308 307 305 301 295 287 281 276 274
Height
5814 5814 5814 5814 5814 5813 5813 5813 5812 5811 5810 5809 5809 5808 5807 5805 5804 5803 5801 5800 5798 5796 5794 5792 5790 5789 5787 5785 5782 5780 5778 5776 5773 5771 5768 5766 5764 5762 5760 5757 5755 5752 5749 5746 5743 5740 5738 5734 5730 5727 5723 5720 5716 5712 5708 5703 5699 5695 5690 5688 5684 5678 5676 5675 5671 5675 5684 5680 5670 5665 5658 5652 5650 5645 5639 5637 5635 5630 5625 5620 5616 5612 5607 5601 5598
5809 5809 5809 5809 5809 5808 5808 5807 5807 5806 5805 5804 5803 5802 5801 5800 5798 5797 5795 5794 5792 5790 5788 5786 5784 5782 5780 5778 5776 5774 5772 5769 5767 5765 5762 5760 5758 5756 5754 5752 5749 5746 5743 5740 5737 5734 5731 5727 5724 5720 5716 5713 5709 5705 5701 5697 5692 5688 5684 5679 5677 5672 5666 5665 5663 5661 5667 5672 5664 5656 5650 5643 5638 5634 5628 5623 5622 5621 5618 5610 5604 5601 5596 5588 5584
5803 5804 5803 5803 5803 5803 5802 5802 5801 5800 5799 5799 5798 5796 5795 5794 5792 5791 5789 5787 5786 5784 5782 5780 5778 5776 5774 5772 5770 5768 5766 5763 5761 5759 5757 5755 5752 5750 5748 5746 5743 5740 5737 5734 5731 5727 5724 5721 5717 5713 5709 5705 5702 5698 5694 5690 5686 5681 5677 5673 5668 5665 5659 5654 5653 5651 5651 5657 5655 5647 5640 5635 5629 5622 5617 5612 5607 5606 5605 5601 5594 5590 5586 5577 5571
5798 5798 5798 5797 5797 5797 5796 5796 5795 5794 5793 5792 5791 5790 5789 5787 5786 5784 5782 5781 5779 5777 5775 5773 5772 5770 5768 5766 5764 5762 5760 5758 5756 5753 5751 5749 5747 5744 5742 5739 5737 5734 5731 5727 5724 5721 5717 5714 5710 5706 5703 5698 5694 5691 5687 5683 5679 5674 5669 5666 5660 5656 5652 5646 5642 5640 5638 5641 5644 5638 5630 5624 5620 5612 5604 5601 5598 5593 5590 5587 5581 5577 5574 5568 5560
5791 5792 5791 5791 5791 5790 5790 5789 5788 5787 5787 5786 5785 5783 5782 5781 5779 5777 5776 5774 5772 5770 5769 5767 5765 5764 5762 5760 5758 5756 5754 5752 5750 5748 5745 5743 5741 5738 5736 5733 5730 5727 5724 5721 5717 5714 5710 5707 5703 5699 5696 5692 5687 5683 5680 5675 5671 5667 5661 5657 5653 5648 5644 5640 5635 5631 5628 5627 5628 5628 5622 5614 5609 5602 5590 5584 5583 5581 5579 5577 5571 5563 5557 5554 5549
5785 5785 5785 5785 5784 5784 5783 5782 5781 5781 5780 5779 5778 5777 5775 5774 5772 5771 5769 5767 5766 5764 5762 5761 5759 5758 5756 5754 5753 5751 5748 5746 5744 5742 5739 5737 5734 5732 5729 5726 5723 5720 5717 5714 5710 5707 5703 5699 5696 5692 5688 5685 5680 5676 5672 5668 5664 5659 5654 5650 5646 5642 5637 5633 5628 5624 5621 5617 5613 5612 5611 5605 5597 5591 5583 5572 5566 5562 5559 5561 5563 5557 5546 5541 5537
5778 5778 5778 5778 5777 5776 5776 5775 5775 5774 5773 5772 5771 5770 5768 5767 5765 5764 5762 5761 5760 5758 5756 5755 5754 5752 5750 5749 5747 5745 5743 5740 5738 5736 5733 5731 5728 5725 5722 5719 5716 5713 5710 5707 5703 5699 5695 5691 5687 5684 5680 5677 5673 5668 5664 5661 5656 5651 5647 5642 5638 5634 5630 5625 5621 5616 5612 5607 5602 5597 5596 5593 5585 5578 5572 5563 5555 5550 5540 5535 5540 5541 5535 5530 5526
5771 5771 5771 5770 5770 5769 5769 5768 5768 5767 5766 5765 5764 5763 5761 5760 5759 5758 5756 5755 5753 5752 5751 5749 5748 5746 5745 5743 5741 5739 5736 5734 5732 5729 5727 5724 5721 5718 5715 5712 5709 5706 5702 5699 5695 5690 5687 5683 5679 5676 5672 5668 5665 5661 5656 5653 5649 5644 5639 5635 5630 5625 5621 5616 5612 5608 5603 5597 5591 5585 5582 5580 5573 5566 5560 5552 5545 5541 5532 5520 5515 5515 5512 5511 5510
5764 5764 5763 5763 5763 5762 5762 5761 5760 5759 5759 5758 5757 5756 5755 5754 5752 5751 5750 5748 5747 5746 5744 5743 5742 5740 5738 5737 5734 5732 5730 5727 5725 5722 5720 5717 5714 5711 5708 5705 5701 5698 5694 5690 5687 5683 5678 5675 5671 5667 5664 5660 5656 5652 5648 5644 5640 5636 5631 5626 5621 5616 5612 5607 5601 5597 5593 5588 5581 5574 5569 5567 5561 5552 5545 5539 5531 5527 5521 5511 5502 5496 5490 5487 5491
5756 5756 5756 5755 5755 5754 5754 5753 5753 5752 5751 5751 5750 5749 5748 5747 5745 5744 5743 5742 5741 5739 5738 5737 5736 5734 5732 5730 5728 5725 5723 5721 5718 5716 5713 5709 5707 5703 5700 5697 5694 5690 5686 5681 5677 5674 5670 5666 5663 5659 5656 5652 5648 5644 5640 5636 5631 5626 5622 5616 5612 5607 5602 5598 5592 5586 5581 5577 5571 5563 5556 5554 5550 5539 5529 5523 5517 5511 5506 5497 5488 5480 5473 5467 5469
5749 5749 5749 5748 5748 5747 5747 5746 5746 5745 5744 5744 5743 5742 5741 5740 5739 5738 5737 5736 5734 5733 5732 5731 5729 5728 5726 5724 5722 5719 5716 5714 5711 5708 5706 5702 5699 5696 5693 5690 5686 5682 5678 5674 5670 5666 5662 5658 5655 5652 5648 5644 5640 5636 5632 5628 5623 5618 5613 5607 5601 5596 5591 5586 5582 5576 5570 5565 5560 5553 5542 5538 5537 5528 5516 5508 5503 5497 5491 5484 5473 5463 5457 5449 5445
5742 5742 5742 5741 5741 5740 5740 5739 5739 5738 5738 5737 5737 5736 5735 5734 5733 5732 5730 5729 5728 5727 5726 5725 5723 5722 5720 5717 5715 5712 5709 5707 5704 5701 5698 5695 5691 5688 5685 5681 5678 5675 5671 5667 5663 5659 5655 5651 5647 5644 5640 5636 5632 5629 5624 5620 5615 5610 5605 5599 5592 5586 5580 5575 5569 5564 5559 5553 5549 5543 5531 5523 5521 5515 5504 5493 5487 5482 5475 5471 5463 5450 5443 5436 5426
5736 5736 5735 5735 5734 5734 5733 5733 5733 5732 5732 5731 5731 5730 5729 5728 5727 5726 5725 5723 5722 5721 5720 5718 5717 5715 5713 5710 5708 5705 5702 5700 5697 5694 5691 5687 5684 5681 5677 5674 5670 5667 5663 5659 5655 5651 5648 5645 5641 5636 5632 5628 5625 5621 5617 5612 5608 5603 5597 5591 5585 5578 5572 5566 5559 5551 5546 5540 5536 5532 5522 5512 5506 5501 5492 5479 5470 5464 5458 5453 5448 5438 5430 5425 5415
5729 5729 5729 5729 5729 5728 5728 5728 5727 5727 5726 5725 5725 5724 5723 5722 5720 5719 5718 5717 5716 5714 5713 5711 5710 5708 5705 5703 5700 5697 5695 5692 5689 5686 5683 5680 5677 5673 5670 5667 5663 5659 5655 5651 5647 5644 5640 5637 5634 5629 5624 5620 5617 5613 5609 5605 5600 5595 5590 5583 5578 5571 5564 5559 5551 5543 5536 5529 5523 5519 5513 5503 5495 5488 5480 5469 5457 5448 5440 5433 5427 5419 5413 5410 5403
5723 5723 5723 5723 5723 5722 5722 5722 5721 5720 5720 5719 5718 5717 5716 5715 5714 5713 5711 5710 5709 5707 5706 5704 5702 5700 5697 5695 5692 5689 5687 5684 5681 5678 5675 5672 5669 5666 5662 5659 5655 5651 5648 5644 5639 5636 5632 5630 5626 5622 5617 5613 5609 5605 5601 5597 5593 5588 5583 5577 5571 5564 5557 5551 5544 5536 5529 5521 5513 5507 5501 5494 5486 5477 5467 5457 5446 5436 5428 5420 5411 5401 5395 5392 5388
5717 5717 5717 5717 5717 5716 5716 5715 5715 5714 5713 5712 5711 5710 5709 5708 5707 5705 5704 5703 5701 5700 5698 5696 5694 5692 5689 5687 5684 5681 5678 5676 5673 5671 5668 5665 5661 5658 5655 5652 5648 5644 5640 5636 5631 5627 5624 5622 5618 5614 5610 5605 5601 5596 5592 5589 5585 5580 5576 5570 5564 5557 5550 5543 5537 5529 5521 5514 5506 5498 5491 5483 5475 5467 5456 5444 5434 5424 5417 5411 5402 5392 5384 5378 5373
5710 5710 5710 5710 5710 5710 5709 5709 5708 5707 5706 5706 5705 5703 5702 5701 5700 5698 5697 5695 5694 5692 5691 5689 5686 5684 5681 5678 5676 5673 5670 5668 5666 5663 5661 5657 5654 5651 5648 5644 5641 5637 5632 5627 5623 5619 5616 5613 5610 5606 5602 5597 5592 5588 5583 5579 5576 5572 5568 5564 5558 5551 5545 5538 5531 5523 5514 5506 5499 5491 5483 5474 5466 5458 5448 5437 5425 5413 5404 5398 5390 5380 5372 5365 5359
5704 5704 5704 5704 5703 5703 5703 5702 5701 5701 5700 5699 5698 5696 5695 5694 5692 5691 5689 5688 5686 5684 5683 5681 5678 5676 5673 5670 5668 5665 5663 5661 5658 5656 5653 5650 5647 5643 5640 5637 5633 5629 5624 5620 5616 5612 5608 5604 5601 5597 5593 5588 5584 5579 5575 5571 5567 5562 5558 5555 5550 5545 5539 5533 5527 5521 5513 5504 5495 5486 5476 5467 5458 5450 5441 5430 5418 5405 5394 5384 5376 5367 5359 5352 5345
5698 5698 5697 5697 5697 5696 5696 5695 5694 5694 5693 5692 5690 5689 5688 5687 5685 5684 5682 5680 5678 5677 5675 5673 5671 5668 5666 5663 5661 5658 5656 5653 5651 5648 5645 5643 5639 5636 5632 5630 5626 5622 5617 5613 5609 5604 5599 5596 5592 5588 5583 5579 5574 5570 5566 5561 5557 5552 5547 5544 5540 5536 5531 5525 5518 5513 5508 5501 5493 5484 5475 5465 5454 5444 5436 5425 5413 5400 5387 5375 5365 5355 5347 5342 5336
5691 5690 5690 5690 5689 5689 5689 5688 5687 5686 5685 5684 5683 5682 5680 5679 5678 5676 5674 5672 5670 5669 5667 5665 5663 5661 5659 5656 5654 5651 5648 5646 5643 5640 5637 5635 5632 5629 5625 5622 5619 5615 5611 5606 5601 5597 5592 5587 5583 5579 5574 5569 5564 5560 5555 5551 5546 5541 5537 5533 5529 5525 5521 5516 5509 5502 5497 5491 5485 5476 5468 5460 5450 5439 5430 5420 5409 5398 5386 5373 5361 5350 5340 5333 5329
5683 5683 5683 5683 5682 5681 5681 5680 5679 5679 5678 5677 5675 5674 5673 5671 5670 5668 5666 5665 5663 5661 5659 5657 5655 5653 5651 5649 5646 5644 5641 5638 5635 5632 5629 5626 5624 5621 5617 5614 5612 5608 5604 5599 5594 5589 5585 5580 5576 5570 5565 5560 5555 5550 5545 5540 5535 5531 5526 5522 5518 5513 5508 5504 5499 5493 5487 5480 5474 5467 5458 5451 5443 5434 5424 5414 5404 5394 5384 5373 5362 5351 5339 5329 5321
5676 5676 5676 5675 5675 5674 5673 5673 5672 5671 5670 5669 5667 5666 5665 5663 5662 5660 5658 5657 5655 5653 5651 5649 5647 5645 5643 5641 5638 5636 5633 5630 5627 5623 5621 5618 5615 5612 5609 5607 5604 5601 5596 5592 5587 5582 5578 5573 5568 5563 5558 5552 5547 5541 5536 5531 5526 5521 5517 5512 5507 5502 5497 5492 5487 5482 5476 5470 5464 5456 5448 5440 5433 5425 5416 5407 5398 5389 5379 5370 5360 5351 5342 5331 5320
5669 5669 5668 5667 5667 5666 5665 5665 5664 5663 5662 5661 5659 5658 5657 5655 5653 5652 5650 5649 5647 5645 5643 5641 5640 5637 5635 5633 5630 5628 5624 5621 5618 5615 5612 5610 5607 5604 5602 5599 5596 5593 5588 5584 5580 5575 5571 5566 5561 5556 5550 5545 5539 5533 5528 5522 5517 5512 5507 5502 5497 5492 5487 5482 5476 5471 5465 5459 5452 5445 5437 5428 5421 5413 5406 5397 5389 5381 5373 5364 5355 5347 5340 5333 5324
5661 5661 5660 5659 5659 5658 5657 5656 5655 5654 5653 5653 5651 5650 5648 5647 5645 5644 5642 5640 5639 5637 5635 5634 5632 5630 5627 5625 5622 5619 5616 5613 5610 5607 5604 5601 5599 5596 5593 5591 5588 5584 5580 5576 5572 5567 5563 5558 5553 5548 5542 5537 5531 5526 5520 5514 5509 5504 5499 5494 5489 5483 5478 5472 5466 5460 5454 5448 5442 5435 5427 5418 5409 5401 5394 5386 5378 5371 5364 5357 5349 5341 5335 5329 5322
5653 5652 5652 5651 5650 5649 5649 5648 5647 5646 5645 5644 5643 5641 5640 5639 5637 5635 5634 5632 5631 5629 5627 5626 5624 5621 5619 5616 5614 5611 5608 5605 5602 5599 5596 5593 5591 5588 5585 5582 5579 5575 5571 5567 5563 5559 5554 5550 5545 5540 5534 5529 5524 5518 5513 5507 5502 5496 5491 5486 5480 5475 5469 5463 5457 5451 5445 5439 5433 5426 5419 5410 5401 5392 5384 5376 5368 5360 5355 5351 5345 5338 5331 5326 5320
5645 5644 5643 5643 5642 5641 5640 5640 5639 5638 5637 5636 5634 5633 5631 5630 5628 5627 5625 5624 5622 5621 5619 5618 5616 5613 5611 5608 5606 5603 5600 5597 5594 5592 5589 5586 5583 5580 5577 5574 5570 5566 5562 5558 5554 5549 5545 5541 5536 5531 5526 5521 5517 5512 5507 5501 5495 5489 5483 5478 5472 5466 5461 5455 5449 5443 5437 5431 5424 5417 5410 5402 5394 5385 5377 5368 5360 5353 5347 5343 5339 5334 5327 5322 5317
5637 5637 5636 5635 5634 5633 5632 5631 5630 5629 5628 5627 5625 5624 5622 5621 5619 5618 5617 5615 5614 5613 5611 5609 5607 5605 5602 5600 5597 5595 5592 5590 5587 5585 5582 5578 5575 5572 5569 5565 5561 5557 5554 5550 5545 5541 5536 5532 5528 5524 5519 5514 5509 5504 5499 5493 5488 5481 5475 5469 5464 5458 5452 5446 5440 5433 5428 5422 5415 5409 5402 5394 5386 5379 5371 5363 5355 5348 5341 5335 5331 5326 5321 5316 5311
5629 5628 5627 5627 5626 5625 5624 5623 5621 5620 5619 5618 5616 5615 5613 5612 5611 5609 5608 5607 5606 5604 5603 5601 5599 5596 5594 5592 5589 5587 5585 5582 5579 5576 5573 5570 5567 5564 5560 5557 5553 5549 5545 5541 5536 5532 5528 5524 5520 5516 5511 5506 5501 5496 5490 5484 5478 5472 5467 5461 5456 5450 5443 5437 5430 5424 5418 5412 5406 5400 5394 5387 5380 5373 5365 5358 5350 5343 5337 5331 5325 5320 5315 5310 5305
5621 5620 5619 5618 5617 5616 5615 5614 5613 5611 5610 5609 5607 5606 5605 5603 5602 5600 5599 5598 5597 5596 5595 5593 5590 5588 5585 5583 5581 5578 5576 5574 5571 5568 5564 5561 5558 5555 5552 5548 5544 5539 5536 5532 5528 5524 5520 5516 5512 5508 5504 5499 5493 5488 5483 5477 5471 5465 5459 5454 5449 5443 5436 5430 5424 5417 5410 5404 5398 5393 5387 5381 5374 5367 5360 5353 5346 5339 5332 5327 5322 5317 5312 5306 5300
5613 5612 5611 5610 5609 5608 5606 5605 5604 5603 5601 5600 5599 5597 5596 5595 5593 5592 5591 5590 5589 5588 5586 5584 5582 5579 5577 5574 5572 5570 5567 5565 5562 5559 5555 5551 5549 5546 5542 5538 5534 5530 5527 5523 5520 5516 5512 5508 5504 5500 5496 5491 5486 5481 5475 5470 5465 5459 5453 5447 5441 5436 5430 5423 5417 5411 5405 5398 5392 5386 5380 5375 5368 5361 5354 5348 5343 5336 5329 5323 5318 5313 5308 5303 5297
5606 5605 5603 5602 5600 5599 5598 5597 5596 5594 5593 5592 5590 5589 5588 5587 5585 5584 5583 5582 5580 5579 5577 5575 5573 5571 5568 5565 5563 5561 5558 5556 5553 5549 5545 5542 5539 5536 5533 5529 5525 5522 5518 5515 5511 5508 5504 5500 5496 5492 5488 5483 5478 5473 5468 5463 5458 5452 5446 5440 5434 5428 5423 5416 5410 5404 5399 5393 5386 5380 5374 5368 5362 5355 5349 5343 5338 5333 5327 5321 5316 5311 5305 5299 5294
5597 5596 5595 5593 5592 5591 5590 5589 5587 5586 5584 5583 5582 5580 5579 5578 5577 5575 5574 5572 5571 5570 5568 5566 5564 5561 5559 5557 5554 5551 5549 5546 5543 5539 5536 5533 5530 5527 5523 5520 5516 5513 5509 5506 5503 5499 5496 5492 5488 5484 5479 5474 5469 5465 5460 5455 5450 5445 5439 5433 5427 5421 5416 5410 5403 5398 5392 5387 5381 5374 5368 5362 5356 5350 5343 5337 5332 5328 5323 5318 5313 5309 5303 5298 5292
5588 5587 5586 5585 5584 5582 5581 5580 5578 5577 5576 5574 5573 5572 5571 5569 5568 5566 5565 5563 5562 5561 5559 5557 5554 5552 5550 5547 5545 5542 5539 5536 5533 5530 5526 5523 5520 5517 5514 5510 5507 5504 5501 5498 5494 5491 5487 5484 5480 5475 5471 5466 5461 5457 5452 5447 5442 5436 5431 5426 5420 5415 5409 5403 5397 5391 5386 5380 5374 5368 5362 5356 5351 5345 5338 5332 5327 5322 5318 5314 5310 5306 5301 5296 5291
5580 5579 5577 5576 5575 5573 5572 5571 5570 5568 5567 5565 5564 5563 5562 5560 5559 5557 5555 5554 5553 5552 5550 5547 5545 5543 5540 5537 5535 5533 5530 5526 5523 5521 5517 5514 5511 5508 5505 5501 5498 5495 5492 5489 5485 5482 5478 5475 5471 5467 5462 5458 5453 5448 5443 5439 5434 5429 5424 5419 5413 5407 5402 5396 5391 5385 5380 5374 5368 5362 5356 5351 5345 5340 5334 5328 5323 5318 5314 5310 5306 5303 5299 5294 5289
5570 5569 5568 5567 5565 5564 5563 5562 5561 5559 5557 5556 5555 5554 5552 5551 5549 5548 5546 5545 5543 5542 5540 5537 5535 5533 5530 5528 5525 5523 5520 5517 5514 5511 5508 5504 5501 5498 5495 5493 5490 5486 5483 5480 5476 5473 5469 5466 5462 5458 5454 5449 5445 5440 5436 5431 5427 5422 5417 5412 5406 5401 5396 5391 5385 5380 5374 5369 5363 5357 5351 5345 5340 5335 5329 5324 5319 5315 5310 5306 5303 5299 5296 5292 5288
5560 5559 5558 5557 5555 5554 5553 5552 5551 5550 5548 5547 5546 5544 5543 5541 5540 5538 5537 5535 5534 5532 5529 5527 5525 5523 5520 5517 5515 5513 5510 5507 5504 5502 5498 5495 5492 5489 5486 5484 5481 5477 5474 5471 5467 5464 5461 5457 5453 5449 5445 5441 5437 5433 5428 5424 5419 5414 5410 5405 5400 5395 5390 5385 5380 5375 5369 5363 5358 5352 5346 5340 5335 5330 5324 5319 5315 5311 5307 5303 5300 5296 5293 5289 5285
5550 5549 5548 5547 5545 5544 5543 5542 5541 5539 5538 5537 5536 5534 5533 5531 5530 5528 5527 5525 5523 5521 5519 5517 5515 5513 5510 5507 5505 5502 5500 5497 5494 5491 5488 5485 5482 5479 5477 5474 5471 5468 5465 5461 5458 5455 5452 5448 5445 5441 5437 5434 5430 5425 5421 5417 5412 5407 5402 5397 5393 5389 5384 5379 5374 5369 5363 5358 5353 5347 5341 5335 5330 5324 5320 5315 5311 5307 5303 5300 5297 5293 5290 5287 5283
5540 5539 5538 5537 5536 5535 5533 5532 5531 5529 5528 5527 5525 5524 5523 5521 5520 5518 5516 5514 5512 5510 5508 5506 5504 5501 5499 5496 5494 5492 5490 5487 5484 5481 5479 5476 5473 5469 5467 5464 5461 5459 5455 5452 5449 5446 5443 5440 5437 5433 5430 5426 5422 5418 5414 5409 5404 5400 5396 5391 5386 5382 5378 5373 5368 5362 5357 5351 5346 5342 5336 5331 5324 5319 5315 5311 5307 5303 5300 5297 5294 5291 5288 5285 5282
5530 5529 5528 5526 5525 5524 5523 5522 5520 5519 5518 5516 5515 5513 5512 5510 5509 5507 5504 5503 5501 5499 5497 5495 5493 5490 5488 5485 5483 5481 5479 5476 5474 5471 5469 5466 5463 5460 5457 5455 5452 5449 5447 5443 5440 5438 5435 5432 5429 5425 5422 5418 5415 5411 5406 5402 5398 5394 5389 5385 5380 5375 5371 5367 5362 5356 5351 5346 5341 5336 5331 5326 5320 5314 5310 5306 5303 5299 5296 5293 5290 5288 5286 5283 5280
5519 5518 5517 5516 5515 5514 5513 5511 5510 5508 5507 5505 5504 5502 5500 5499 5498 5496 5493 5491 5489 5487 5485 5483 5481 5479 5476 5474 5473 5471 5468 5466 5463 5461 5459 5457 5454 5451 5449 5446 5443 5441 5438 5435 5433 5430 5427 5423 5420 5417 5414 5410 5407 5403 5400 5396 5391 5388 5383 5379 5375 5370 5365 5361 5356 5351 5346 5341 5336 5331 5326 5321 5316 5310 5305 5301 5298 5295 5292 5289 5287 5285 5283 5280 5277
5508 5507 5506 5505 5504 5503 5502 5501 5499 5498 5496 5494 5492 5491 5489 5488 5486 5484 5482 5480 5478 5475 5474 5472 5470 5468 5466 5464 5463 5461 5458 5456 5454 5452 5449 5447 5445 5443 5440 5437 5435 5433 5430 5428 5425 5422 5418 5415 5412 5409 5406 5402 5399 5396 5393 5389 5386 5382 5378 5374 5369 5365 5360 5355 5350 5346 5340 5335 5330 5325 5320 5315 5311 5306 5302 5298 5294 5291 5288 5286 5283 5281 5280 5277 5275
5496 5495 5494 5493 5492 5491 5490 5490 5488 5486 5484 5483 5481 5480 5478 5476 5474 5472 5470 5468 5466 5464 5463 5461 5459 5457 5456 5454 5452 5450 5448 5446 5444 5442 5440 5438 5436 5434 5431 5429 5427 5425 5422 5419 5417 5414 5410 5407 5404 5401 5398 5395 5392 5389 5386 5383 5379 5376 5372 5368 5364 5359 5355 5350 5345 5340 5335 5329 5324 5319 5315 5310 5305 5300 5297 5293 5290 5287 5284 5282 5280 5278 5276 5274 5272
5483 5483 5482 5481 5480 5480 5479 5478 5476 5474 5473 5471 5470 5468 5466 5464 5463 5461 5459 5457 5455 5454 5453 5450 5448 5447 5445 5444 5442 5441 5439 5437 5435 5433 5431 5429 5427 5424 5422 5420 5418 5416 5414 5411 5408 5405 5402 5398 5396 5393 5390 5388 5385 5382 5379 5376 5373 5370 5366 5362 5358 5354 5349 5345 5340 5335 5330 5324 5318 5313 5308 5303 5299 5295 5291 5288 5285 5282 5280 5278 5276 5274 5273 5271 5269
5471 5471 5470 5469 5468 5467 5466 5465 5464 5462 5461 5459 5457 5456 5455 5453 5451 5449 5447 5446 5444 5443 5442 5440 5438 5437 5435 5434 5432 5431 5429 5427 5425 5423 5421 5419 5417 5415 5413 5411 5409 5407 5405 5403 5400 5396 5393 5390 5387 5385 5383 5380 5377 5374 5372 5369 5366 5363 5360 5356 5352 5348 5343 5339 5335 5330 5325 5319 5314 5308 5302 5297 5293 5289 5286 5283 5280 5278 5275 5273 5271 5270 5269 5267 5266
5459 5458 5457 5456 5455 5455 5454 5453 5452 5450 5448 5447 5446 5445 5443 5441 5440 5438 5436 5435 5433 5432 5431 5429 5428 5427 5426 5424 5423 5421 5419 5416 5415 5413 5411 5409 5407 5405 5404 5402 5400 5398 5396 5394 5392 5388 5385 5382 5379 5377 5374 5372 5369 5366 5364 5361 5359 5356 5353 5350 5346 5342 5337 5333 5328 5324 5319 5314 5309 5303 5298 5292 5288 5284 5281 5278 5275 5273 5270 5269 5267 5266 5264 5263 5262
5447 5446 5445 5444 5443 5442 5441 5440 5439 5437 5436 5435 5434 5433 5431 5430 5428 5427 5425 5424 5422 5421 5420 5418 5417 5416 5415 5414 5412 5410 5408 5406 5404 5402 5401 5399 5398 5396 5394 5393 5391 5389 5388 5386 5383 5380 5377 5374 5371 5369 5366 5364 5361 5358 5356 5353 5351 5348 5345 5342 5339 5335 5331 5327 5322 5317 5313 5308 5303 5298 5292 5287 5282 5279 5276 5273 5270 5267 5265 5264 5262 5261 5260 5259 5258
5434 5433 5432 5431 5430 5429 5428 5427 5426 5425 5424 5423 5422 5420 5420 5418 5417 5416 5414 5413 5412 5410 5409 5408 5406 5405 5404 5403 5401 5399 5397 5395 5393 5392 5390 5389 5388 5386 5385 5384 5382 5380 5379 5377 5375 5372 5369 5367 5364 5361 5358 5355 5353 5350 5347 5345 5342 5340 5337 5334 5331 5327 5324 5320 5315 5311 5306 5301 5296 5291 5286 5281 5277 5273 5270 5267 5264 5262 5260 5258 5257 5256 5255 5254 5253
5421 5420 5419 5418 5417 5416 5415 5414 5413 5412 5411 5410 5409 5408 5407 5406 5405 5404 5403 5402 5401 5400 5399 5397 5395 5394 5393 5391 5390 5388 5386 5384 5383 5381 5380 5379 5378 5377 5376 5375 5373 5371 5370 5368 5365 5363 5361 5359 5356 5354 5351 5347 5345 5342 5339 5336 5334 5331 5329 5326 5323 5319 5316 5312 5308 5303 5298 5294 5289 5284 5280 5275 5271 5267 5264 5261 5259 5256 5254 5252 5251 5250 5249 5249 5248
5407 5406 5406 5405 5404 5403 5402 5401 5400 5399 5399 5397 5396 5396 5395 5394 5393 5392 5391 5390 5388 5388 5387 5385 5384 5383 5381 5380 5378 5377 5375 5374 5373 5371 5370 5369 5368 5367 5366 5365 5364 5362 5360 5358 5356 5354 5352 5350 5348 5345 5343 5340 5337 5334 5331 5328 5325 5323 5320 5318 5315 5312 5308 5304 5300 5296 5291 5286 5282 5277 5273 5269 5265 5261 5258 5255 5253 5251 5249 5247 5245 5245 5244 5243 5243
5393 5393 5392 5391 5391 5390 5389 5388 5387 5387 5386 5384 5383 5383 5382 5381 5380 5380 5378 5377 5376 5375 5374 5372 5371 5371 5369 5368 5366 5365 5364 5363 5362 5361 5359 5359 5358 5358 5357 5355 5354 5352 5350 5349 5347 5345 5344 5341 5339 5337 5335 5333 5330 5327 5324 5321 5318 5315 5312 5310 5307 5304 5300 5297 5293 5289 5284 5279 5274 5270 5266 5262 5258 5255 5252 5249 5247 5245 5243 5241 5240 5239 5238 5238 5238
5380 5379 5378 5378 5377 5377 5375 5374 5374 5373 5372 5371 5371 5370 5369 5368 5367 5366 5365 5364 5363 5362 5361 5360 5359 5358 5357 5356 5354 5353 5353 5352 5351 5350 5349 5348 5348 5348 5347 5346 5344 5342 5341 5339 5338 5336 5334 5333 5331 5329 5327 5325 5322 5319 5316 5313 5310 5308 5305 5302 5299 5296 5293 5289 5285 5281 5277 5272 5268 5264 5260 5256 5253 5249 5246 5243 5241 5239 5237 5235 5234 5233 5232 5232 5232